Hourly Data Report for October 01, 2017

All times are specified in Local Standard Time (LST). Add 1 hour to adjust for Daylight Saving Time where and when it is observed.

MOOSE CREEK WELLS
ONTARIO

45°15'04.000" N
74°57'46.000" W
84.50 m
6105397
71635
TCK

Download Data

Hourly Data (October 2017)
Hourly Data Report for October 1, 2017
Temp Definition
°C
Dew Point Temp Definition
°C
Rel Hum Definition
%
Wind Dir Definition
10's deg

Wind Spd Definition
km/h
Visibility Definition
km
Stn Press Definition
kPa
Hmdx Definition


Wind Chill Definition


Weather Definition


TIME
00:00 2.3 2.3 100 0 1   101.76     LegendNANA
01:00 1.8 1.7 100 18 2   101.77     LegendNANA
02:00 1.7 1.7 100 18 2   101.77     LegendNANA
03:00 1.4 1.4 100 17 2   101.77     LegendNANA
04:00 1.5 1.5 100 18 3   101.79     LegendNANA
05:00 0.9 0.9 100 18 4   101.81     LegendNANA
06:00 0.4 0.4 100 19 3   101.83     LegendNANA
07:00 2.7 2.7 100 18 5   101.84     LegendNANA
08:00 8.2 6.2 87 21 4   101.85     LegendNANA
09:00 10.3 6.1 75 26 8   101.87     LegendNANA
10:00 12.7 5.3 61 26 9   101.83     LegendNANA
11:00 14.5 5.8 56 22 10   101.76     LegendNANA
12:00 15.6 5.0 49 25 11   101.70     LegendNANA
13:00 16.1 4.5 46 24 12   101.60     LegendNANA
14:00 16.8 3.4 41 25 12   101.52     LegendNANA
15:00 16.9 3.3 40 27 11   101.47     LegendNANA
16:00 17.0 3.3 40 26 9   101.43     LegendNANA
17:00 15.5 4.4 47 25 6   101.44     LegendNANA
18:00 10.1 6.2 77 23 4   101.47     LegendNANA
19:00 7.0 5.1 88 0 1   101.50     LegendNANA
20:00 6.5 5.5 93   0   101.57     LegendNANA
21:00 7.5 5.0 84 17 6   101.57     LegendNANA
22:00 7.5 5.1 85 17 5   101.59     LegendNANA
23:00 7.0 4.9 87 17 7   101.63     LegendNANA

Notes on Data Quality.

Legend

  • E = Estimated
  • M = Missing
  • NA = Not Available
  • ‡ = Partner data that is not subject to review by the National Climate Archives
Date modified: